Location: Newark
(42.7133°N, 87.7910°W)
Time: 11:13:26
(UTC+00:00)

Vanguard 1 - Pass Details

Date: 24 September 2019
Orbit: 653 x 3830 km, 34.2° (Epoch: 17 October)

Event Time Altitude Azimuth Distance (km) Brightness Sun altitude
Rises 05:36:44 0° 217° (SW) 7,026 - -47.6°
Reaches altitude 10° 05:41:23 10° 211° (SSW) 6,323 - -47.6°
Maximum altitude 06:01:14 44° 147° (SSE) 4,679 - -47.5°
Exits shadow 06:06:45 40° 121° (ESE) 4,821 13.2 -47.3°
Drops below altitude 10° 06:20:49 10° 85° (E) 6,299 14.3 -46.8°
Sets 06:25:22 0° 79° (E) 7,005 14.7 -46.6°
